Location: Wakeley
(44.8280°N, 106.8906°W)
Time: 12:10:36
(UTC+00:00)

X-37B - Visible Passes

Search period start: 20 January 2022 00:00
Search period end: 30 January 2022 00:00
Orbit: 334 x 337 km, 45.0° (Epoch: 11 January)

Date Brightness Start Highest point End Pass type
(mag) Time Alt. Az. Time Alt. Az. Time Alt. Az.
26 Jan 3.2 02:07:14 10° SSW 02:07:37 12° SSW 02:07:37 12° SSW visible
27 Jan 3.3 02:26:56 10° SW 02:27:26 14° SW 02:27:26 14° SW visible
28 Jan 2.2 01:12:40 10° SSW 01:14:47 19° SSE 01:15:56 15° ESE visible
28 Jan 4.0 02:47:08 10° WSW 02:47:10 10° WSW 02:47:10 10° WSW visible
29 Jan 1.1 01:32:22 10° SW 01:35:03 38° SSE 01:35:38 33° SE visible
